Time,TemperatureF,DewpointF,PressureIn,WindDirection,WindDirectionDegrees,WindSpeedMPH,WindSpeedGustMPH,Humidity,HourlyPrecipIn,Conditions,Clouds,dailyrainin,SoftwareType,DateUTC
2013-04-13 06:06:00,51.9,51.4,29.89,NNE,26,0.0,0.0,98,0.00,,,0.00,Wunderground v.1.15,2013-04-13 13:06:00,
2013-04-13 06:08:00,51.9,51.4,29.89,NNE,25,0.0,0.0,98,0.00,,,0.00,Wunderground v.1.15,2013-04-13 13:08:00,
2013-04-13 06:14:00,51.9,51.4,29.89,East,101,0.0,1.0,98,0.00,,,0.00,Wunderground v.1.15,2013-04-13 13:14:00,
2013-04-13 06:20:00,51.9,51.4,29.89,NNE,12,0.0,0.0,98,0.00,,,0.00,Wunderground v.1.15,2013-04-13 13:20:00,
2013-04-13 06:26:00,51.9,51.4,29.89,North,353,0.0,0.0,98,0.00,,,0.00,Wunderground v.1.15,2013-04-13 13:26:00,
2013-04-13 06:32:00,52.0,51.5,29.89,NNE,21,0.0,0.0,98,0.00,,,0.00,Wunderground v.1.15,2013-04-13 13:32:00,
2013-04-13 06:38:00,52.0,51.5,29.89,NNE,22,0.0,0.0,98,0.00,,,0.00,Wunderground v.1.15,2013-04-13 13:38:00,
2013-04-13 06:44:00,52.0,51.5,29.88,NNE,22,0.0,0.0,98,0.00,,,0.00,Wunderground v.1.15,2013-04-13 13:44:00,
2013-04-13 06:50:00,52.1,51.6,29.88,North,8,0.0,1.0,98,0.00,,,0.00,Wunderground v.1.15,2013-04-13 13:50:00,
2013-04-13 06:56:00,52.0,51.2,29.89,East,100,0.0,1.0,97,0.00,,,0.00,Wunderground v.1.15,2013-04-13 13:56:00,
2013-04-13 07:02:00,51.9,51.1,29.90,ESE,114,0.0,0.0,97,0.00,,,0.00,Wunderground v.1.15,2013-04-13 14:02:00,
2013-04-13 07:08:00,51.9,51.4,29.90,SE,146,0.0,0.0,98,0.00,,,0.00,Wunderground v.1.15,2013-04-13 14:08:00,
2013-04-13 07:14:00,52.0,51.5,29.90,SE,140,0.0,0.0,98,0.00,,,0.00,Wunderground v.1.15,2013-04-13 14:14:00,
2013-04-13 07:20:00,52.2,51.7,29.90,SE,139,0.0,0.0,98,0.00,,,0.00,Wunderground v.1.15,2013-04-13 14:20:00,
2013-04-13 07:26:00,52.2,51.7,29.91,SE,140,0.0,0.0,98,0.00,,,0.00,Wunderground v.1.15,2013-04-13 14:26:00,
2013-04-13 07:32:00,52.1,51.3,29.91,ESE,114,0.0,4.0,97,0.00,,,0.00,Wunderground v.1.15,2013-04-13 14:32:00,
2013-04-13 07:40:00,52.2,51.4,29.91,SSE,163,0.0,4.0,97,0.00,,,0.00,Wunderground v.1.15,2013-04-13 14:40:00,
2013-04-13 07:46:00,52.2,51.4,29.91,WSW,257,0.0,4.0,97,0.00,,,0.00,Wunderground v.1.15,2013-04-13 14:46:00,
2013-04-13 07:52:00,52.2,51.4,29.91,WSW,252,0.0,4.0,97,0.00,,,0.00,Wunderground v.1.15,2013-04-13 14:52:00,
2013-04-13 08:00:00,52.5,51.7,29.91,WSW,240,0.0,0.0,97,0.00,,,0.00,Wunderground v.1.15,2013-04-13 15:00:00,
2013-04-13 08:06:00,52.6,51.8,29.91,WSW,240,0.0,0.0,97,0.00,,,0.00,Wunderground v.1.15,2013-04-13 15:06:00,
2013-04-13 08:12:00,52.9,52.1,29.91,WSW,240,0.0,0.0,97,0.00,,,0.00,Wunderground v.1.15,2013-04-13 15:12:00,
2013-04-13 08:18:00,53.0,52.2,29.91,WSW,240,0.0,0.0,97,0.00,,,0.00,Wunderground v.1.15,2013-04-13 15:18:00,
2013-04-13 08:24:00,53.2,52.4,29.91,WSW,244,0.0,0.0,97,0.00,,,0.00,Wunderground v.1.15,2013-04-13 15:24:00,
2013-04-13 08:30:00,53.4,52.6,29.91,WSW,238,0.0,0.0,97,0.00,,,0.00,Wunderground v.1.15,2013-04-13 15:30:00,
2013-04-13 08:36:00,53.4,52.3,29.91,WSW,238,0.0,2.0,96,0.00,,,0.00,Wunderground v.1.15,2013-04-13 15:36:00,
2013-04-13 08:42:00,53.7,52.9,29.91,SW,236,0.0,2.0,97,0.00,,,0.00,Wunderground v.1.15,2013-04-13 15:42:00,
2013-04-13 08:48:00,53.9,53.1,29.91,WSW,238,0.0,2.0,97,0.00,,,0.00,Wunderground v.1.15,2013-04-13 15:48:00,
2013-04-13 08:54:00,53.9,52.8,29.92,SW,236,0.0,2.0,96,0.00,,,0.00,Wunderground v.1.15,2013-04-13 15:54:00,
2013-04-13 09:00:00,54.2,53.1,29.92,SW,236,0.0,0.0,96,0.00,,,0.00,Wunderground v.1.15,2013-04-13 16:00:00,
2013-04-13 09:06:00,54.3,52.9,29.91,NNW,339,0.0,2.0,95,0.00,,,0.00,Wunderground v.1.15,2013-04-13 16:06:00,
2013-04-13 09:12:00,54.2,52.8,29.92,NW,326,0.0,0.0,95,0.00,,,0.00,Wunderground v.1.15,2013-04-13 16:12:00,
2013-04-13 09:20:00,54.5,53.1,29.92,NNW,345,0.0,0.0,95,0.00,,,0.00,Wunderground v.1.15,2013-04-13 16:20:00,
2013-04-13 09:26:00,54.8,53.4,29.92,NNW,346,0.0,0.0,95,0.00,,,0.00,Wunderground v.1.15,2013-04-13 16:26:00,
2013-04-13 09:32:00,55.1,53.4,29.92,NNW,346,0.0,0.0,94,0.00,,,0.00,Wunderground v.1.15,2013-04-13 16:32:00,
2013-04-13 09:38:00,55.3,53.6,29.92,NW,323,0.0,0.0,94,0.00,,,0.00,Wunderground v.1.15,2013-04-13 16:38:00,
2013-04-13 09:44:00,55.7,53.7,29.92,WNW,288,0.0,0.0,93,0.00,,,0.00,Wunderground v.1.15,2013-04-13 16:44:00,
2013-04-13 09:50:00,56.2,53.9,29.91,WSW,243,0.0,0.0,92,0.00,,,0.00,Wunderground v.1.15,2013-04-13 16:50:00,
2013-04-13 09:56:00,56.7,53.8,29.92,WSW,244,0.0,0.0,90,0.00,,,0.00,Wunderground v.1.15,2013-04-13 16:56:00,